Tracking 19638 objects as of 22-Apr-2019
HD Live streaming from Space Station
objects crossing your sky now

THORAD AGENA D DEB

Track THORAD AGENA D DEB now!
10-day predictions


NORAD ID: 42523
Int'l Code: 1970-025SD
Perigee: 973.5 km
Apogee: 1,015.2 km
Inclination: 100.0 °
Period: 104.8 minutes
Semi major axis: 7365 km
RCS: Unknown
Launch date: April 8, 1970
Source: United States (US)
Launch site: AIR FORCE WESTERN TEST RANGE (AFWTR)

Note: This is SATELLITE DEBRIS
aabbcc
Your satellite tracking list
Your tracking list is empty




NASA's NSSDC Master Catalog

Two Line Element Set (TLE):
1 42523U 70025SD  19109.35786359  .00000080  00000-0  13779-3 0  9994
2 42523 100.0081  66.4639 0028313 113.4428  40.1648 13.73462102270979
Source of the keplerian elements: AFSPC